Location: Newark
(52.3500°N, 175.9667°E)
Time: 01:30:14
(UTC+00:00)

S-56A Canister/Altair - Visible Passes

Search period start: 01 December 2021 00:00
Search period end: 11 December 2021 00:00
Orbit: 633 x 2500 km, 38.9° (Epoch: 30 November)

Date Brightness Start Highest point End Pass type
(mag) Time Alt. Az. Time Alt. Az. Time Alt. Az.
01 Dec 9.7 16:47:26 12° S 16:47:26 12° S 16:48:06 10° SSE visible
10 Dec 11.2 07:41:00 10° SSE 07:41:42 11° SSE 07:41:42 11° SSE visible
10 Dec 11.4 09:38:48 10° SSW 09:39:09 11° SSW 09:39:09 11° SSW visible
